Tracking 17857 objects as of 29-September-2016
HD Live streaming from Space Station
objects crossing your sky now

COSMOS 252 DEB

Track COSMOS 252 DEB now!
10-day predictions


NORAD ID: 3559
Int'l Code: 1968-097M
Perigee: 508.7 km
Apogee: 1,362.8 km
Inclination: 62.3 °
Period: 103.6 minutes
Semi major axis: 7306 km
RCS: 0.1149 m2 (medium)
Launch date: November 1, 1968
Source: Commonwealth of Independent States (former USSR) (CIS)
Launch site: TYURATAM MISSILE AND SPACE COMPLEX (TTMTR)

Note: This is SATELLITE DEBRIS
Your satellite tracking list
Your tracking list is empty





NASA's NSSDC Master Catalog

Two Line Element Set (TLE):
1 03559U 68097M   16272.48339587  .00000868  00000-0  19762-3 0  9997
2 03559  62.2911 304.6223 0584493  86.6008 280.1676 13.90813932347795
Source of the keplerian elements: AFSPC

N2YO: 532